Tracking 18840 objects as of 18-November-2017
HD Live streaming from Space Station
objects crossing your sky now

SKYNET 5A

Track SKYNET 5A now!
SKYNET 5A is classified as:


NORAD ID: 30794
Int'l Code: 2007-007B
Perigee: 35,773.4 km
Apogee: 35,812.8 km
Inclination: 0.1 °
Period: 1,436.1 minutes
Semi major axis: 42164 km
RCS: 14.5845 m2 (large)
Launch date: March 11, 2007
Source: United Kingdom (UK)
Launch site: FRENCH GUIANA (FRGUI)

Skynet 5A is a geostationary British military communications craft. The 4.7 tonne craft is reported to be well-hardened against impacts and is capable of repelling jamming attacks. It will be parked at 1.0° W longitude.
aabbcc
Your satellite tracking list
Your tracking list is empty




NASA's NSSDC Master Catalog

Two Line Element Set (TLE):
1 30794U 07007B   17321.52409089 -.00000275 +00000-0 +00000-0 0  9993
2 30794 000.0694 358.2424 0004677 241.5431 100.8654 01.00274093039277
Source of the keplerian elements: AFSPC